Flag for Saudi Arabia Weather past 2 weeks in Jeddah, Saudi Arabia

Now
86 °F

Clear.


Feels Like: 89 °F
Forecast: 83 / 96 °F
Wind: 12 mph from North

Location: Jeddah King Abdul Aziz International Airport

Current Time: Jun 30, 2015 at 11:22:21 PM

Latest Report: Jun 30, 2015 at 11:00 PM


Visibility: 10 mi

Pressure: 29.74 "Hg

Humidity: 55%

Dew point: 68 °F

Location of JeddahLocation

Historic Weather in Jeddah — Graph

°F

Jeddah temperature yesterday

Maximum temperature yesterday: 104 °F (at 1:00 PM)
Minimum temperature yesterday: 79 °F (at 6:00 AM)
Average temperature yesterday: 90 °F

Past Weeks' High & Low Weather Summary

 TemperatureHumidityPressure
High104 °F (Jun 29, 1:00 PM)89% (Jun 24, 6:00 AM)29.80 "Hg (Jun 24, 6:00 AM)
Low73 °F (Jun 23, 6:00 AM)11% (Jun 28, 12:00 PM)29.56 "Hg (Jun 17, 2:00 AM)
Average88 °F48%29.69 "Hg
* Reported Jun 15 10:00 PM — Jun 30 10:00 PM, Jeddah, Weather by CustomWeather, © 2015

Note: Actual official high and low records may vary slightly from our data, if they occured in-between our weather recording intervals... More about our weather records

Advertising

Jeddah weather history for previous 24 hours

 ConditionsComfort  
Time TempWeatherWind HumidityBarometerVisibility
10:00 PM
Tue, Jun 30
86 °FClear.12 mph55%29.74 "Hg10 mi
9:00 PM88 °FClear.9 mph46%29.74 "Hg10 mi
8:00 PM90 °FClear.14 mph41%29.74 "Hg10 mi
7:00 PM93 °FSunny.14 mph34%29.74 "Hg10 mi
6:00 PM97 °FSunny.16 mph28%29.71 "Hg10 mi
5:00 PM99 °FSunny.21 mph25%29.71 "Hg10 mi
4:00 PM100 °FSunny.21 mph25%29.71 "Hg5 mi
3:00 PM100 °FSunny.23 mph27%29.71 "Hg10 mi
2:00 PM100 °FSunny.21 mph27%29.71 "Hg5 mi
1:00 PM102 °FSunny.21 mph24%29.74 "Hg5 mi
12:00 PM100 °FSunny.17 mph27%29.74 "Hg10 mi
11:00 AM100 °FSunny.15 mph27%29.77 "Hg10 mi
10:00 AM97 °FSunny.12 mph30%29.77 "Hg10 mi
9:00 AM93 °FSunny.12 mph34%29.74 "Hg10 mi
8:00 AM88 °FSunny.9 mph31%29.74 "Hg10 mi
7:00 AM82 °FSunny.6 mph42%29.71 "Hg10 mi
6:00 AM81 °FSunny.6 mph51%29.71 "Hg10 mi
5:00 AM82 °FClear.5 mph55%29.71 "Hg10 mi
4:00 AM82 °FClear.7 mph58%29.71 "Hg10 mi
3:00 AM82 °FClear.9 mph58%29.71 "Hg10 mi
2:00 AM84 °FClear.7 mph58%29.71 "Hg10 mi
1:00 AM86 °FClear.9 mph55%29.74 "Hg10 mi
12:00 AM86 °FClear.9 mph59%29.77 "Hg10 mi
11:00 PM
Mon, Jun 29
88 °FClear.9 mph55%29.77 "Hg10 mi
Weather by CustomWeather, © 2015

See weather overviewHow to use our weather pages